[[{"header":{"parameterUnit":"m.s-1","parameterCategory":1,"la1":30.2991,"la2":30.254,"lo1":-89.0895,"lo2":-89.0444,"dy":0.0017,"dx":0.0017,"nx":28,"ny":28,"refTime":"2024-03-12T03:00:00:Z","depth":0,"parameterNumber":2,"parameterNumberName":"U-component_of_WINDS"},"data":[0,0,0,0,0,0,0,0,0,0,0,0,0,0,0,0,0,0,0,0,0,0,0,0,0,0,0,0,0,0,0,0,0,0,0,0,0,0,0,0,0,0,0,0,0,0,0,0,0,0,0,0,0,0,0,0,0,0,-0.5671,-0.5671,0,-0.5613,-0.5612,-0.5612,-0.5537,-0.5536,-0.5535,-0.5534,-0.5475,-0.5474,-0.5474,0,0,0,0,0,0,0,0,0,0,0,0,0,-0.5719,-0.5719,-0.5672,-0.5671,-0.567,-0.5613,-0.5612,-0.5612,-0.5537,-0.5536,-0.5535,-0.5533,-0.5475,-0.5474,-0.5474,0,0,0,0,0,0,0,0,0,0,0,0,0,-0.5684,-0.5719,-0.5672,-0.5626,-0.5621,-0.5613,-0.5612,-0.5611,-0.5538,-0.5536,-0.5534,-0.5532,-0.5475,-0.5474,-0.5474,-0.5506,0,0,-0.5471,-0.5471,0,0,0,0,0,0,0,0,-0.5686,-0.5682,-0.5634,-0.5629,-0.5624,-0.5581,-0.5608,-0.5576,-0.5538,-0.557,-0.5534,-0.5532,-0.5511,-0.5508,-0.5501,-0.5503,-0.55,-0.5471,-0.5471,-0.5471,-0.5471,0,0,0,0,0,0,0,-0.5688,-0.5684,-0.5648,-0.5633,-0.5627,-0.5609,-0.5602,-0.5601,-0.5551,-0.5567,-0.5561,-0.5555,-0.5508,-0.5501,-0.5499,-0.5499,-0.5471,-0.5471,-0.547,-0.547,-0.5526,-0.5528,0,0,0,0,0,0,-0.5698,-0.5687,-0.565,-0.5647,-0.5651,-0.561,-0.5602,-0.5596,-0.5551,-0.5542,-0.5557,-0.5552,-0.5503,-0.55,-0.5496,-0.5532,-0.5471,-0.547,-0.547,-0.5524,-0.5526,-0.5528,0,0,0,0,0,0,-0.5699,-0.5695,-0.5653,-0.5665,-0.5658,-0.5611,-0.5605,-0.5596,-0.5589,-0.5544,-0.5534,-0.5559,-0.5502,-0.5497,-0.5504,-0.5529,-0.547,-0.5469,-0.5522,-0.5525,-0.5527,-0.5603,0,0,0,0,0,0,-0.5701,-0.5696,-0.5707,-0.5666,-0.5658,-0.5661,-0.5607,-0.5596,-0.5588,-0.5581,-0.5543,-0.5535,-0.55,-0.5505,-0.5503,-0.5527,-0.5469,-0.5519,-0.5523,-0.5527,-0.5598,-0.5608,-0.5616,0,0,0,0,0,-0.5703,-0.5731,-0.5708,-0.5704,-0.5671,-0.5663,-0.5658,-0.5617,-0.559,-0.5602,-0.5573,-0.5536,-0.5526,-0.5507,-0.5504,-0.5527,-0.5518,-0.5522,-0.5526,-0.5594,-0.5606,-0.5616,0,0,0,0,0,0,-0.5776,-0.5724,-0.5699,-0.5715,-0.5694,-0.565,-0.5663,-0.5631,-0.5618,-0.5612,-0.5562,-0.5554,-0.5567,-0.5547,-0.5527,-0.5556,-0.5517,-0.552,-0.5569,-0.558,-0.5589,-0.5594,-0.5468,0,0,0,0,0,-0.5794,-0.5792,-0.5746,-0.5765,-0.5755,-0.5712,-0.5706,-0.5676,-0.5653,-0.5644,-0.5615,-0.5594,-0.5586,-0.5581,-0.5571,-0.5594,-0.5585,-0.5609,-0.5618,-0.5626,-0.563,-0.5642,-0.5652,-0.5542,-0.5542,-0.5542,0,0,-0.5832,-0.5803,-0.5804,-0.5779,-0.5759,-0.5758,-0.5704,-0.5705,-0.5704,-0.5644,-0.5649,-0.5627,-0.56,-0.5615,-0.5621,-0.5599,-0.5659,-0.5631,-0.5638,-0.5638,-0.5648,-0.5658,-0.5667,-0.5545,-0.5545,-0.5544,0,0,-0.5899,-0.5877,-0.589,-0.5872,-0.5843,-0.5813,-0.5817,-0.5778,-0.5761,-0.5765,-0.5721,-0.5718,-0.5705,-0.5688,-0.5678,-0.574,-0.5707,-0.5738,-0.5787,-0.5799,-0.5808,-0.5815,-0.5839,-0.5847,-0.5742,-0.5743,-0.5743,0,-0.595,-0.5946,-0.5901,-0.5905,-0.5895,-0.5841,-0.5854,-0.5838,-0.5808,-0.5803,-0.5779,-0.5763,-0.574,-0.5752,-0.5767,-0.576,-0.5763,-0.5743,-0.581,-0.5817,-0.5823,-0.5845,-0.5854,-0.5747,-0.5746,-0.5746,-0.5745,0,-0.601,-0.6008,-0.6022,-0.5994,-0.5986,-0.5995,-0.5952,-0.5949,-0.592,-0.5893,-0.5899,-0.587,-0.5854,-0.5854,-0.5826,-0.5862,-0.585,-0.5819,-0.5778,-0.5839,-0.5858,-0.5866,-0.5753,-0.5751,-0.575,-0.5749,0,0,-0.6123,-0.607,-0.6076,-0.6063,-0.6027,-0.6025,-0.6032,-0.6016,-0.6015,-0.5996,-0.6001,-0.5991,-0.5963,-0.5951,-0.592,-0.5931,-0.5984,-0.5898,-0.5897,-0.5917,-0.6023,-0.6048,-0.6058,-0.5961,-0.5962,-0.5963,-0.6026,0,-0.6185,-0.6193,-0.6153,-0.6172,-0.617,-0.6118,-0.6124,-0.6103,-0.6079,-0.6074,-0.6046,-0.6041,-0.6003,-0.5996,-0.6004,-0.5976,-0.6005,-0.597,-0.5966,-0.5966,-0.5976,-0.6068,-0.6094,-0.6154,-0.6033,-0.6034,-0.6035,0,-0.6258,-0.6243,-0.6262,-0.6226,-0.6224,-0.623,-0.6213,-0.6209,-0.6184,-0.6165,-0.6153,-0.6118,-0.6122,-0.6083,-0.6089,-0.6066,-0.6062,-0.6048,-0.6049,-0.6048,-0.6005,-0.6071,-0.6172,-0.6182,-0.6047,-0.6046,-0.6045,0,-0.6341,-0.6325,-0.6335,-0.6325,-0.6283,-0.6288,-0.6271,-0.6245,-0.6238,-0.6223,-0.6219,-0.6204,-0.6197,-0.6187,-0.6149,-0.6124,-0.616,-0.6117,-0.6146,-0.6147,-0.6157,-0.6157,-0.626,-0.6152,-0.6152,-0.6152,-0.6152,0,-0.6415,-0.6429,-0.6371,-0.6377,-0.6392,-0.6346,-0.6361,-0.6339,-0.6316,-0.6317,-0.6271,-0.6273,-0.6222,-0.6219,-0.6189,-0.62,-0.6196,-0.6182,-0.6174,-0.6187,-0.6189,-0.6185,-0.618,-0.6154,-0.6154,-0.6153,-0.6153,0,-0.6509,-0.6471,-0.6479,-0.6438,-0.6428,-0.6441,-0.6407,-0.6411,-0.6383,-0.6386,-0.6384,-0.6341,-0.6335,-0.6295,-0.628,-0.626,-0.6282,-0.6265,-0.6291,-0.6286,-0.6317,-0.6315,-0.6422,-0.6435,-0.6318,-0.6319,-0.632,0,-0.656,-0.657,-0.653,-0.6528,-0.6513,-0.6509,-0.6503,-0.6458,-0.6453,-0.6426,-0.6434,-0.6424,-0.6414,-0.6407,-0.6374,-0.6363,-0.6346,-0.6385,-0.6344,-0.6357,-0.6349,-0.6349,-0.6351,-0.6394,-0.6395,-0.6396,-0.6397,0,-0.6654,-0.6635,-0.6627,-0.6613,-0.6606,-0.6592,-0.6576,-0.6577,-0.6527,-0.6524,-0.6517,-0.6509,-0.6494,-0.6486,-0.6469,-0.6451,-0.6417,-0.641,-0.6416,-0.643,-0.6445,-0.6439,-0.6316,-0.6408,-0.6407,-0.6406,-0.6406,-0.6405,-0.6729,-0.6736,-0.671,-0.6702,-0.6685,-0.6671,-0.6674,-0.6647,-0.664,-0.6625,-0.6598,-0.6596,-0.6572,-0.6545,-0.6531,-0.6529,-0.6508,-0.6517,-0.652,-0.6523,-0.653,-0.6445,-0.6525,-0.6525,-0.6524,-0.6524,-0.6524,0,-0.6822,-0.6803,-0.6797,-0.6775,-0.677,-0.6737,-0.6718,-0.6716,-0.6714,-0.6694,-0.6685,-0.6678,-0.667,-0.6637,-0.6625,-0.663,-0.6614,-0.6629,-0.6628,-0.6625,-0.6548,-0.6545,-0.6642,-0.6642,-0.6642,-0.6642,-0.6642,-0.6642,-0.687,-0.688,-0.6858,-0.6859,-0.6839,-0.6837,-0.6829,-0.6816,-0.68,-0.6794,-0.6787,-0.6765,-0.6741,-0.6727,-0.6718,-0.6709,-0.6707,-0.6727,-0.6713,-0.6642,-0.6631,-0.662,-0.6616,-0.6727,-0.6727,-0.679,-0.6791,-0.6792]},{"header":{"parameterUnit":"m.s-1","parameterCategory":1,"la1":30.2991,"la2":30.254,"lo1":-89.0895,"lo2":-89.0444,"dy":0.0017,"dx":0.0017,"nx":28,"ny":28,"refTime":"2024-03-12T03:00:00:Z","depth":0,"parameterNumber":3,"parameterNumberName":"V-component_of_WINDS"},"data":[0,0,0,0,0,0,0,0,0,0,0,0,0,0,0,0,0,0,0,0,0,0,0,0,0,0,0,0,0,0,0,0,0,0,0,0,0,0,0,0,0,0,0,0,0,0,0,0,0,0,0,0,0,0,0,0,0,0,1.2749,1.2749,0,1.2675,1.2674,1.2673,1.2676,1.2677,1.2678,1.2679,1.2599,1.2596,1.2593,0,0,0,0,0,0,0,0,0,0,0,0,0,1.289,1.2888,1.2749,1.2749,1.2748,1.2675,1.2674,1.2673,1.2676,1.2677,1.2678,1.2679,1.26,1.2597,1.2593,0,0,0,0,0,0,0,0,0,0,0,0,0,1.2824,1.2887,1.275,1.274,1.2739,1.2675,1.2674,1.2673,1.2675,1.2677,1.2678,1.268,1.2601,1.2597,1.2592,1.2533,0,0,1.2578,1.2576,0,0,0,0,0,0,0,0,1.2828,1.2819,1.2742,1.2741,1.2739,1.2686,1.2695,1.2626,1.2675,1.2699,1.2679,1.2681,1.2627,1.262,1.2603,1.2529,1.2526,1.2578,1.2575,1.2573,1.2572,0,0,0,0,0,0,0,1.2832,1.2822,1.272,1.2741,1.2739,1.2739,1.2731,1.2682,1.2655,1.2697,1.2697,1.2689,1.2626,1.2607,1.2601,1.2525,1.2578,1.2574,1.2571,1.2569,1.2397,1.2396,0,0,0,0,0,0,1.2839,1.2826,1.2722,1.2718,1.2788,1.2735,1.2726,1.2702,1.2656,1.265,1.2687,1.2689,1.2614,1.2606,1.2598,1.2524,1.2573,1.2569,1.2566,1.2399,1.2397,1.2395,0,0,0,0,0,0,1.2842,1.283,1.2725,1.2772,1.2758,1.2731,1.2703,1.2699,1.268,1.2648,1.2643,1.2673,1.2615,1.2605,1.2549,1.2521,1.2567,1.2563,1.2401,1.2399,1.2396,1.2377,0,0,0,0,0,0,1.2846,1.2831,1.2809,1.2771,1.2756,1.2678,1.2701,1.2697,1.2673,1.2674,1.2633,1.2628,1.2616,1.2556,1.2544,1.2516,1.2559,1.2404,1.24,1.2397,1.238,1.2374,1.2369,0,0,0,0,0,1.2851,1.2806,1.2808,1.2795,1.2728,1.2677,1.2668,1.2655,1.2671,1.2647,1.2627,1.2629,1.2527,1.255,1.2537,1.2507,1.2405,1.2401,1.2397,1.2382,1.2375,1.2369,0,0,0,0,0,0,1.2839,1.2801,1.2802,1.2743,1.2714,1.2677,1.2647,1.2648,1.2612,1.2615,1.26,1.2591,1.2535,1.2516,1.2542,1.2447,1.2468,1.2461,1.2461,1.2454,1.2448,1.2453,1.2555,0,0,0,0,0,1.283,1.2793,1.2761,1.2712,1.2697,1.2675,1.2652,1.2646,1.2613,1.26,1.2576,1.2544,1.2504,1.2478,1.244,1.2378,1.2368,1.235,1.2345,1.2341,1.2334,1.2299,1.229,1.2382,1.2382,1.2382,0,0,1.281,1.2784,1.2762,1.2709,1.2685,1.2646,1.2664,1.2622,1.2592,1.2594,1.2539,1.2521,1.2484,1.2424,1.2397,1.2406,1.2307,1.2335,1.2332,1.2328,1.2294,1.2285,1.2277,1.2379,1.238,1.238,0,0,1.2753,1.2731,1.2687,1.2663,1.2627,1.2613,1.2602,1.2566,1.2554,1.25,1.25,1.2464,1.2397,1.237,1.2348,1.2282,1.2282,1.227,1.224,1.2206,1.2198,1.2192,1.2167,1.2158,1.2264,1.2264,1.2264,0,1.2732,1.2674,1.2664,1.2622,1.2598,1.2599,1.2554,1.2531,1.2484,1.2467,1.2479,1.2394,1.237,1.2303,1.2287,1.227,1.2256,1.2273,1.2201,1.2194,1.2188,1.2163,1.2154,1.2263,1.2263,1.2263,1.2263,0,1.265,1.261,1.2578,1.2534,1.2507,1.2463,1.2446,1.242,1.2416,1.24,1.2344,1.2315,1.2271,1.2255,1.225,1.2188,1.2195,1.2204,1.2225,1.2178,1.2155,1.2145,1.2261,1.2261,1.2262,1.2262,0,0,1.2581,1.2533,1.2521,1.2501,1.2462,1.243,1.2386,1.2344,1.2321,1.2289,1.2251,1.2195,1.2203,1.2178,1.217,1.214,1.2088,1.2153,1.2152,1.214,1.2016,1.2008,1.1997,1.2089,1.2088,1.2086,1.2018,0,1.2519,1.2442,1.2432,1.2363,1.2325,1.2326,1.2288,1.226,1.2244,1.2209,1.2191,1.2151,1.2166,1.215,1.2121,1.2101,1.2062,1.2106,1.2052,1.205,1.2059,1.1985,1.1977,1.1914,1.201,1.2008,1.2007,0,1.2435,1.2401,1.2329,1.2295,1.2279,1.2245,1.2205,1.2172,1.214,1.213,1.2103,1.2099,1.2053,1.2077,1.2013,1.2042,1.202,1.2007,1.2004,1.1997,1.2024,1.1974,1.1894,1.1884,1.1993,1.1994,1.1995,0,1.239,1.2327,1.2275,1.2258,1.2218,1.2193,1.2175,1.2144,1.212,1.2085,1.2069,1.2029,1.2006,1.1975,1.1961,1.198,1.1896,1.192,1.1886,1.1886,1.1866,1.1867,1.1779,1.1855,1.1856,1.1856,1.1856,0,1.232,1.2275,1.2255,1.2223,1.2172,1.2162,1.2112,1.2095,1.2067,1.2031,1.203,1.1996,1.198,1.1943,1.1931,1.1879,1.1869,1.1859,1.1856,1.1858,1.1859,1.1841,1.1844,1.1853,1.1854,1.1854,1.1855,0,1.226,1.2244,1.2188,1.2155,1.2146,1.211,1.2081,1.2049,1.2035,1.1989,1.1978,1.1955,1.1911,1.1895,1.1841,1.1834,1.1772,1.1774,1.1783,1.1782,1.1748,1.1751,1.1644,1.1629,1.1717,1.1716,1.1716,0,1.2215,1.2181,1.2144,1.212,1.2102,1.2064,1.2039,1.2027,1.2001,1.1961,1.1934,1.1892,1.1856,1.1787,1.1765,1.1724,1.1723,1.1689,1.1717,1.172,1.172,1.1722,1.1717,1.1683,1.1682,1.1681,1.168,0,1.2136,1.213,1.2095,1.2057,1.2027,1.1997,1.1967,1.1947,1.1931,1.1901,1.1858,1.1831,1.1777,1.1734,1.1692,1.1673,1.1673,1.1672,1.1662,1.1662,1.1668,1.1662,1.1767,1.1674,1.1675,1.1675,1.1675,1.1676,1.2081,1.205,1.202,1.198,1.1957,1.1929,1.1898,1.188,1.1844,1.1799,1.1795,1.1748,1.1716,1.166,1.1639,1.1601,1.161,1.1595,1.1591,1.1587,1.1584,1.1676,1.1594,1.1594,1.1594,1.1594,1.1594,0,1.2,1.1981,1.1945,1.1904,1.1872,1.1878,1.1845,1.1818,1.1777,1.1748,1.1714,1.1663,1.1622,1.1597,1.1555,1.1529,1.1528,1.1519,1.1519,1.1514,1.1579,1.1591,1.152,1.152,1.152,1.152,1.152,1.152,1.1955,1.1903,1.1894,1.183,1.1811,1.1765,1.1746,1.172,1.1697,1.1641,1.1607,1.1591,1.1563,1.152,1.1482,1.1475,1.1459,1.1448,1.1442,1.1502,1.151,1.1517,1.1528,1.1445,1.1445,1.138,1.1379,1.1379]}]]